Location: Newark
(30.1000°N, 109.4667°E)
Time: 01:09:41
(UTC+00:00)

SR - Pass Details

Date: 23 February 2020
Orbit: 578 x 878 km, 66.7° (Epoch: 06 April)

Event Time Altitude Azimuth Distance (km) Brightness Sun altitude
Rises 06:54:41 0° 195° (SSW) 3,390 ? 40.7°
Reaches altitude 10° 06:57:07 10° 192° (SSW) 2,482 ? 40.4°
Maximum altitude 07:02:51 65° 112° (ESE) 959 ? 39.6°
Drops below altitude 10° 07:08:41 10° 32° (NNE) 2,522 ? 38.7°
Sets 07:11:11 0° 29° (NNE) 3,448 ? 38.3°
